Simultaneous Nadir Overpasses (SNOs) Predictions

Prediction of SNOs between GOES-17 and METOP-C Satellite Orbit:

Table of predicted SNOs for the next 14.0 days since TLE Epoch: 6/4/2022
Index Date Time (GOES-17) GOES-17 Lat,Lon METOP-C Lat,Lon Distance(km) Time Diff (sec)
1 06/04/2022 06:38:38 -0.05,-137.20 -0.07,-137.21 2.94 80
2 06/06/2022 18:39:31 0.04,-137.19 -0.07,-136.79 46.58 80
3 06/08/2022 06:55:53 -0.04,-137.19 -0.99,-141.39 478.48 80
4 06/09/2022 06:37:54 -0.04,-137.19 0.16,-136.41 90.01 80
5 06/10/2022 18:54:04 0.04,-137.18 0.91,-140.96 431.13 80
6 06/11/2022 18:36:06 0.04,-137.17 -0.24,-135.97 136.79 80
7 06/13/2022 06:52:27 -0.03,-137.15 -0.80,-140.57 389.75 80
8 06/14/2022 06:34:28 -0.03,-137.14 0.30,-135.58 177.43 80
9 06/15/2022 18:50:39 0.02,-137.11 0.72,-140.14 345.76 80
10 06/16/2022 18:32:41 0.02,-137.09 -0.44,-135.16 220.95 80
